Retour au catalogue

KUIPER-00293

ActifCommunicationsLEO
NORAD 68593·PAYLOAD·🇺🇸 United States

Lancé Apr 4, 2026 depuis Cape Canaveral Space Force Station

Loading…

Prochains Passages (prochaines 24 heures)

TLE

FraisSource: CelesTrak SupGP

Époque: Sep 14, 2026, 19:10 UTC

1 68593C 26072W   26257.79918982 -.00002378  00000+0 -31124-3 0  2575
2 68593  51.8964 151.8628 0001733  43.3794 253.0268 14.79932353    14

Suivez KUIPER-00293 en temps réel avec AllMySat

Download on the App Store